Location: Korczew
(51.3586°N, 19.4491°E)
Time: 22:15:03
(UTC+00:00)

Cosmos 1766 Rocket - Pass Details

Date: 19 May 2025
Orbit: 598 x 627 km, 82.5° (Epoch: 16 June)

Event Time Altitude Azimuth Distance (km) Brightness Sun altitude
Rises 20:16:03 0° 355° (N) 2,911 8.2 -12.1°
Reaches altitude 10° 20:18:26 10° 3° (N) 1,995 7.0 -12.3°
Maximum altitude 20:22:33 37° 72° (ENE) 964 4.4 -12.7°
Enters shadow 20:25:13 19° 130° (SE) 1,485 4.9 -12.9°
